Hourly Weather Rudnya-Sydorivs'ka

Today, 18 April, Sunday

Time Temperature Precipitation Wind Pressure Humidity
00:00 +4°C° 0 mm 2 mps 750 mmHg 87%
01:00 +3°C° 0 mm 2 mps 750 mmHg 89%
02:00 +3°C° 0 mm 2 mps 750 mmHg 91%
03:00 +3°C° 0 mm 2 mps 750 mmHg 91%
04:00 +3°C° 0 mm 3 mps 749 mmHg 92%
05:00 +3°C° 0 mm 3 mps 749 mmHg 92%
06:00 +3°C° 0 mm 3 mps 749 mmHg 92%
07:00 +4°C° 0 mm 3 mps 749 mmHg 91%
08:00 +5°C° 0 mm 4 mps 749 mmHg 90%
09:00 +7°C° 0 mm 3 mps 749 mmHg 88%
10:00 +8°C° 0 mm 3 mps 749 mmHg 86%
11:00 +9°C° 0 mm 3 mps 749 mmHg 84%
12:00 +9°C° 0.1 mm 3 mps 749 mmHg 86%
13:00 +9°C° 0.1 mm 2 mps 749 mmHg 88%
14:00 +10°C° 0.1 mm 1 mps 749 mmHg 90%
15:00 +9°C° 0 mm 2 mps 749 mmHg 91%
16:00 +9°C° 0 mm 2 mps 749 mmHg 91%
17:00 +8°C° 0 mm 2 mps 749 mmHg 91%
18:00 +8°C° 0 mm 3 mps 750 mmHg 91%
19:00 +8°C° 0 mm 3 mps 750 mmHg 91%
20:00 +7°C° 0 mm 3 mps 750 mmHg 92%
21:00 +5°C° 0 mm 3 mps 750 mmHg 92%
22:00 +5°C° 0 mm 2 mps 750 mmHg 92%
23:00 +4°C° 0 mm 2 mps 751 mmHg 93%

Tomorrow, 19 April, Monday

Time Temperature Precipitation Wind Pressure Humidity
00:00 +4°C° 0 mm 2 mps 751 mmHg 93%
01:00 +3°C° 0 mm 2 mps 751 mmHg 93%
02:00 +3°C° 0 mm 2 mps 750 mmHg 92%
03:00 +3°C° 0 mm 2 mps 750 mmHg 93%
04:00 +2°C° 0 mm 2 mps 750 mmHg 93%
05:00 +2°C° 0 mm 2 mps 750 mmHg 93%
06:00 +4°C° 0 mm 2 mps 750 mmHg 88%
07:00 +5°C° 0 mm 2 mps 750 mmHg 83%
08:00 +7°C° 0 mm 3 mps 751 mmHg 78%
09:00 +8°C° 0 mm 3 mps 750 mmHg 72%
10:00 +10°C° 0 mm 3 mps 750 mmHg 65%
11:00 +11°C° 0 mm 4 mps 750 mmHg 59%
12:00 +12°C° 0 mm 4 mps 750 mmHg 57%
13:00 +12°C° 0 mm 4 mps 750 mmHg 55%
14:00 +12°C° 0 mm 4 mps 750 mmHg 53%
15:00 +12°C° 0 mm 4 mps 749 mmHg 56%
16:00 +11°C° 0 mm 4 mps 749 mmHg 60%
17:00 +11°C° 0 mm 4 mps 749 mmHg 63%
18:00 +10°C° 0 mm 3 mps 749 mmHg 69%
19:00 +8°C° 0 mm 3 mps 749 mmHg 75%
20:00 +7°C° 0 mm 3 mps 749 mmHg 81%
21:00 +7°C° 0 mm 3 mps 749 mmHg 85%
22:00 +5°C° 0 mm 3 mps 749 mmHg 89%
23:00 +5°C° 0 mm 2 mps 749 mmHg 93%

Day after tomorrow, 20 April, Tuesday

Time Temperature Precipitation Wind Pressure Humidity
00:00 +4°C° 0 mm 3 mps 748 mmHg 92%
01:00 +5°C° 0 mm 3 mps 748 mmHg 92%
02:00 +5°C° 0 mm 3 mps 748 mmHg 91%
03:00 +5°C° 0 mm 4 mps 747 mmHg 91%
04:00 +5°C° 0 mm 4 mps 747 mmHg 90%
05:00 +4°C° 0 mm 4 mps 747 mmHg 90%
06:00 +5°C° 0 mm 4 mps 747 mmHg 85%
07:00 +5°C° 0 mm 5 mps 747 mmHg 81%
08:00 +5°C° 0 mm 5 mps 746 mmHg 77%
09:00 +6°C° 0 mm 5 mps 746 mmHg 75%
10:00 +6°C° 0 mm 5 mps 746 mmHg 74%
11:00 +6°C° 0 mm 4 mps 746 mmHg 72%
12:00 +7°C° 0 mm 5 mps 745 mmHg 70%
13:00 +7°C° 0 mm 5 mps 745 mmHg 69%
14:00 +7°C° 0 mm 5 mps 744 mmHg 67%
15:00 +7°C° 0 mm 5 mps 744 mmHg 68%
16:00 +6°C° 0 mm 5 mps 744 mmHg 70%
17:00 +6°C° 0 mm 5 mps 744 mmHg 72%
18:00 +5°C° 0 mm 5 mps 744 mmHg 72%
19:00 +5°C° 0 mm 5 mps 744 mmHg 73%
20:00 +3°C° 0 mm 5 mps 744 mmHg 74%
21:00 +3°C° 0 mm 5 mps 744 mmHg 74%
22:00 +4°C° 0 mm 4 mps 743 mmHg 73%
23:00 +3°C° 0 mm 4 mps 743 mmHg 72%

21 April, Wednesday

Time Temperature Precipitation Wind Pressure Humidity
00:00 +3°C° 0 mm 4 mps 743 mmHg 77%
01:00 +1°C° 0 mm 4 mps 743 mmHg 81%
02:00 0°C° 0 mm 4 mps 743 mmHg 85%
03:00 0°C° 0 mm 4 mps 743 mmHg 86%
04:00 0°C° 0 mm 4 mps 744 mmHg 87%
05:00 0°C° 0 mm 4 mps 744 mmHg 87%
06:00 +3°C° 0 mm 4 mps 744 mmHg 80%
07:00 +4°C° 0 mm 4 mps 745 mmHg 73%
08:00 +5°C° 0 mm 4 mps 745 mmHg 66%
09:00 +7°C° 0 mm 5 mps 745 mmHg 62%
10:00 +8°C° 0 mm 5 mps 745 mmHg 58%
11:00 +10°C° 0 mm 5 mps 745 mmHg 55%
12:00 +10°C° 0.1 mm 5 mps 745 mmHg 53%
13:00 +12°C° 0.1 mm 5 mps 745 mmHg 52%
14:00 +12°C° 0.1 mm 5 mps 745 mmHg 50%
15:00 +12°C° 0.1 mm 4 mps 746 mmHg 54%
16:00 +12°C° 0.1 mm 4 mps 746 mmHg 57%
17:00 +12°C° 0.1 mm 4 mps 746 mmHg 60%
18:00 +10°C° 0.1 mm 3 mps 746 mmHg 67%
19:00 +9°C° 0.1 mm 3 mps 747 mmHg 74%
20:00 +8°C° 0.1 mm 2 mps 747 mmHg 81%
21:00 +7°C° 0.1 mm 2 mps 747 mmHg 83%
22:00 +7°C° 0.1 mm 2 mps 747 mmHg 85%
23:00 +7°C° 0.1 mm 2 mps 747 mmHg 88%

22 April, Thursday

Time Temperature Precipitation Wind Pressure Humidity
00:00 +6°C° 0 mm 2 mps 748 mmHg 88%
01:00 +6°C° 0 mm 2 mps 748 mmHg 88%
02:00 +6°C° 0 mm 2 mps 748 mmHg 87%
03:00 +5°C° 0 mm 2 mps 748 mmHg 88%
04:00 +5°C° 0 mm 2 mps 748 mmHg 88%
05:00 +5°C° 0 mm 2 mps 748 mmHg 89%
06:00 +7°C° 0 mm 2 mps 749 mmHg 83%
07:00 +8°C° 0 mm 2 mps 749 mmHg 77%
08:00 +10°C° 0 mm 2 mps 749 mmHg 71%
09:00 +12°C° 0.2 mm 3 mps 749 mmHg 66%
10:00 +13°C° 0.2 mm 3 mps 749 mmHg 61%
11:00 +15°C° 0.2 mm 4 mps 749 mmHg 55%
12:00 +15°C° 0.4 mm 4 mps 749 mmHg 53%
13:00 +17°C° 0.4 mm 4 mps 749 mmHg 52%
14:00 +16°C° 0.4 mm 5 mps 749 mmHg 50%
15:00 +17°C° 0.3 mm 4 mps 749 mmHg 53%
16:00 +16°C° 0.3 mm 3 mps 749 mmHg 56%
17:00 +16°C° 0.3 mm 2 mps 749 mmHg 60%
18:00 +14°C° 0.5 mm 2 mps 749 mmHg 67%
19:00 +12°C° 0.5 mm 2 mps 749 mmHg 75%
20:00 +11°C° 0.5 mm 1 mps 749 mmHg 83%
21:00 +9°C° 0 mm 2 mps 749 mmHg 84%
22:00 +9°C° 0 mm 2 mps 749 mmHg 85%
23:00 +8°C° 0 mm 2 mps 749 mmHg 86%

23 April, Friday

Time Temperature Precipitation Wind Pressure Humidity
00:00 +8°C° 0 mm 2 mps 749 mmHg 86%
01:00 +8°C° 0 mm 2 mps 749 mmHg 87%
02:00 +7°C° 0 mm 3 mps 749 mmHg 88%
03:00 +7°C° 0 mm 2 mps 749 mmHg 88%
04:00 +7°C° 0 mm 2 mps 749 mmHg 88%
05:00 +7°C° 0 mm 2 mps 749 mmHg 88%
06:00 +8°C° 0 mm 3 mps 749 mmHg 85%
07:00 +9°C° 0 mm 3 mps 749 mmHg 82%
08:00 +10°C° 0 mm 3 mps 749 mmHg 78%
09:00 +11°C° 0.1 mm 3 mps 749 mmHg 75%
10:00 +13°C° 0.1 mm 2 mps 750 mmHg 72%
11:00 +14°C° 0.1 mm 2 mps 750 mmHg 68%
12:00 +12°C° 0 mm 3 mps 750 mmHg 70%
13:00 +12°C° 0 mm 3 mps 750 mmHg 71%
14:00 +11°C° 0 mm 4 mps 750 mmHg 73%
15:00 +10°C° 0 mm 4 mps 750 mmHg 73%
16:00 +10°C° 0 mm 4 mps 750 mmHg 73%
17:00 +8°C° 0 mm 4 mps 751 mmHg 73%
18:00 +8°C° 0 mm 4 mps 751 mmHg 75%
19:00 +8°C° 0 mm 3 mps 751 mmHg 77%
20:00 +8°C° 0 mm 2 mps 751 mmHg 79%
21:00 +7°C° 0 mm 3 mps 751 mmHg 79%
22:00 +7°C° 0 mm 3 mps 751 mmHg 78%
23:00 +6°C° 0 mm 4 mps 751 mmHg 78%
Show more